DMSP 5D-2 F8 DEB

基本信息
目录编号:
60253
目录名称:
DMSP 5D-2 F8 DEB
国际标识:
1987-053L
轨道中心:
EARTH
物体状态:
已陨落(2024-10-04)
发射日期:
1987-06-20 UTC
轨道信息
数据来源: 国际轨道数据
星历时间: 2024-10-04T03:27:30+0800
半长轴: 6865.028km
偏心率: 0.0043218
轨道倾角: 98.665°
近地点辐角: 344.668°
升交点赤经: 104.294°
平近点角: 15.324°
近地点: 457.223km
远地点: 516.563km
周期: 94.346分钟
每日圈数: 15.262981
详细信息
发射场:
AFWTR
轨道高度:
LEO
数据来源:
AOE Integration Group
参考系:
TEME
时间系统:
UTC
历元类型:
SGP4
2D轨道图
3D轨道图
轨道高度分析图
轨道倾角分析图
轨道综合分析图
查看轨道综合分析图